Regional Weather Roundup
Issued by NWS Newport/Morehead, NC

Current Version | Previous Version | Graphics & Text | Print | Product List | Glossary Off
Versions: 1 2 3 4 5 6 7 8 9 10 11 12 13 14 15 16 17 18 19 20 21 22 23 24 25 26 27 28 29 30 31 32 33 34 35 36 37 38 39 40 41 42 43 44 45 46 47 48 49 50
583 ASUS42 KMHX 291025 RWRMHX WEATHER ROUNDUP FOR EASTERN NORTH CAROLINA NATIONAL WEATHER SERVICE NEWPORT/MOREHEAD CITY NC 600 AM EDT MON AUG 29 2016 NOTE: "FAIR" INDICATES FEW OR NO CLOUDS BELOW 12,000 FEET WITH NO SIGNIFICANT WEATHER AND/OR OBSTRUCTIONS TO VISIBILITY NCZ015>017-031-032-045>047-102-103-291100- NORTH COAST CITY SKY/WX TMP DP RH WIND PRES REMARKS EDENTON CLOUDY N/A N/A N/A N5 30.10S ELIZABETH CITY PTCLDY 76 74 93 N10 30.09S KITTY HAWK CLOUDY 78 78 100 CALM 30.06F MANTEO PTCLDY 78 78 98 E6 30.07F $$ NCZ045>047-081-094-103-104-291100- CENTRAL COAST CITY SKY/WX TMP DP RH WIND PRES REMARKS FRISCO PTCLDY 78 74 87 NE6 30.06S $$ NCZ095-097-098-100-101-291100- SOUTHERN COAST CITY SKY/WX TMP DP RH WIND PRES REMARKS BEAUFORT CLOUDY 76 75 97 NE3 30.06F CEDAR ISLAND NOT AVBL JACKSONVILLE CLOUDY 76 74 93 N7 30.06S PINEY ISLAND NOT AVBL WILMINGTON CLOUDY 75 74 96 NE7 30.06F $$ NCZ011>013-027>030-043-044-078>080-089-090>093-098-291100- COASTAL PLAIN CITY SKY/WX TMP DP RH WIND PRES REMARKS AHOSKIE CLEAR 69 68 98 CALM 30.11S CLINTON CLOUDY 74 74 99 NE3 30.09F ELIZABETHTOWN LGT RAIN 75 75 100 CALM 30.09R GOLDSBORO CLOUDY 74 74 100 NE7 30.08S GREENVILLE CLOUDY 72 72 100 N3 30.11S HAVELOCK CLOUDY 78 75 90 N8 30.07F KENANSVILLE CLOUDY 73 73 100 NE3 30.09S FOG KINSTON CLOUDY 74 73 97 N6 30.10S NEW BERN CLOUDY 76 74 93 NE7 30.08S RICHLANDS CLOUDY N/A N/A N/A NE6 30.08S ROCKY MOUNT CLOUDY 70 70 100 N7 30.11S WASHINGTON CLOUDY 73 72 98 N5 30.09S WHITEVILLE CLOUDY 76 74 93 NE6 30.07S $$ AMZ130-135-150-152-154-156-158-170-250-252-270-ANZ085-086-088-633-658-670-291100- MARINE OBSERVATIONS STATION/POSITION TIME TEMP WIND PRES WAVE SWELL AIR SEA DIR/SP/G HT/PER HT/PER (UTC) (F) (DEG/KT/KT) (MB) (FT/S) (FT/S) CHESAPEAKE LIGHT NOT AVBL 64 E VA BEACH 0950 78 80 360/ 8/ 12 1018.2 4/ 8 3/ 8 DUCK 1000 79 78 40/ 7/ 9 1017.8 2 E DUCK 0911 78 N/A 4/ 6 2/14 OREGON INLET 1000 79 80 10/ 3/ 5 1018.1 13E OREGON INLT 0900 81 N/A 5/13 5/13 HATTERAS CG 1000 80 82 40/ 5/ 8 1017.4 DIAMOND BUOY 0950 83 84 60/ 10/ 14 1017.4 6/ 9 5/ 9 CAPE LOOKOUT 1000 77 10/ 7/ 9 1017.5 BEAUFORT LAB 1000 77 81 30/ 4/ 5 1017.3 30 SE NEW RVR IN 1008 81 84 40/ 12/ 16 1017.6 30 SE NEW RVR IN 0925 84 N/A 3/14 2/14 27 SE WRIGHTSVLE 1008 79 83 90/ 12/ 16 1017.5 5 SE WRIGHTSVLE 1008 79 83 40/ 10/ 16 1018.5 225 S CAPE HAT 0950 81 84 290/ 12/ 14 1015.2 7/ 8 7/ 8 41 SE CHARLESTON 0950 83 85 50/ 6/ 8 1016.3 3/ 8 3/ 8 $$

USA.gov is the U.S. government's official web portal to all federal, state and local government web resources and services.